Location: ?????????
(55.7833°N, 38.6000°E)
Time: 14:46:47
(UTC+00:00)

Daily predictions for brighter satellites

Satellite Brightness Start Highest point End
(mag) Time Altitude Azimuth Time Altitude Azimuth Time Altitude Azimuth
USA 281 3.9 13:37:39 10° E 13:43:22 33° NE 13:49:05 10° NNW
Meteor 1-27 4.4 13:38:10 10° S 13:43:41 61° E 13:49:20 10° NNE
Okean 3 Rocket 4.4 13:42:33 10° NNW 13:46:57 58° W 13:51:22 10° S
Envisat 3.1 13:42:55 10° SSE 13:47:54 60° ENE 13:52:56 10° N
H-2A R/B 2.6 13:44:40 10° SE 13:48:51 54° ENE 13:52:55 10° N
SJ 16-02 4.3 13:46:12 10° NW 13:49:12 18° W 13:52:10 10° SW
Cosmos 1766 Rocket 4.4 13:46:36 10° NNW 13:50:59 56° W 13:55:17 10° S
NOAA 12 4.4 13:46:06 10° SE 13:51:08 45° ENE 13:56:11 10° N
YAOGAN 1 4.4 13:50:33 10° ENE 13:52:10 12° NE 13:53:48 10° NNE
Cosmos 2360 Rocket 2.3 13:47:25 10° SW 13:53:03 80° NW 13:58:44 10° NNE
Cosmos 1184 Rocket 4.4 13:51:06 10° NNW 13:54:11 38° W 13:57:13 10° SSW
SL-08 R/B 3.5 13:50:20 10° NNE 13:55:19 85° WNW 14:00:11 10° SSW
Cosmos 1743 Rocket 3.6 13:51:06 10° N 13:55:34 59° ENE 13:59:59 10° SSE
SJ-7 4.3 13:55:47 10° SSE 13:59:46 79° ENE 14:03:47 10° NNW
Cosmos 1408 Rocket 3.8 13:56:08 10° NNW 14:00:34 76° W 14:04:54 10° S
Cosmos 2219 Rocket 2.4 13:55:17 10° SSW 14:00:48 57° ESE 14:06:20 10° NE
MOS 1-B 4.4 13:55:58 10° SSE 14:01:47 81° ENE 14:07:38 10° NNW
Sich 1 3.8 13:58:10 10° N 14:02:10 32° ENE 14:06:07 10° SE
ADEOS Rocket 3.7 13:57:26 10° NNE 14:04:57 61° E 14:12:39 10° S
H-2A R/B 3.5 14:02:49 10° E 14:05:57 16° NE 14:09:02 10° N
Cosmos 1862 3.3 14:02:20 10° N 14:06:22 62° ENE 14:10:22 10° SSE
Cosmos 44 3.6 14:01:30 10° NW 14:06:34 54° NNE 14:11:50 10° ESE
Cosmos 1980 Rocket 3.8 14:02:12 10° W 14:06:42 24° NNW 14:11:13 10° NNE
Cosmos 1814 Rocket 4.2 14:02:18 10° S 14:07:30 55° ESE 14:12:40 10° NE
GEOS 3 Rocket 4.4 14:02:27 10° NE 14:07:36 46° NNW 14:12:43 10° W
Okean-O 4.0 14:05:51 10° E 14:08:50 18° NE 14:11:48 10° N
CZ-4B R/B 3.1 14:04:20 10° SSE 14:09:35 63° ENE 14:14:50 10° NNW
Nadezhda 1 Rocket 4.4 14:03:40 10° SSE 14:09:39 46° E 14:15:43 10° NNE
SL-16 R/B 3.2 14:04:44 10° WSW 14:10:05 41° NW 14:15:27 10° NNE
Cosmos 2237 Rocket 3.1 14:07:13 10° SSE 14:11:57 28° ESE 14:16:31 11° NE
Cosmos 1842 Rocket 3.5 14:09:28 10° S 14:13:43 63° E 14:18:02 10° NNE
Cosmos 2315 Rocket 4.4 14:08:24 10° SSW 14:14:37 68° WNW 14:20:56 10° N
Cosmos 1805 Rocket 3.8 14:11:04 10° N 14:15:27 51° ENE 14:19:48 10° SSE
NOAA 11 4.4 14:10:16 10° SE 14:15:27 48° ENE 14:20:41 10° N
AQUARIUS 4.2 14:11:24 10° SE 14:15:48 56° ENE 14:20:14 10° N
Okean O Rocket 1.6 14:13:46 10° SSE 14:18:03 59° ENE 14:22:23 10° N
Cosmos 2369 Rocket 3.0 14:14:07 10° NNW 14:19:11 31° NNE 14:24:09 10° E
Cosmos 2154 Rocket 4.0 14:13:01 10° N 14:19:23 75° ENE 14:25:44 10° SSE
Cosmos 1570 Rocket 4.0 14:14:19 10° SSW 14:19:35 74° ESE 14:24:53 10° NNE
Cosmos 1666 Rocket 4.2 14:17:42 10° N 14:21:41 32° ENE 14:25:41 10° SE
Cosmos 1610 Rocket 4.5 14:16:02 10° N 14:22:26 78° ENE 14:28:43 10° SSE
CORIOLIS 4.1 14:17:22 10° SSE 14:22:43 67° ENE 14:28:09 10° NNW
Cosmos 2322 3.8 14:17:10 10° SW 14:22:51 87° NW 14:28:36 10° NE
FengYun 1-2 T 4.3 14:17:49 10° SE 14:23:13 57° ENE 14:28:37 10° N
NOSS 0 Rocket 4.4 14:17:33 10° S 14:23:22 43° ESE 14:28:53 11° NE
SL-16 R/B 4.2 14:18:18 10° N 14:23:27 27° NW 14:28:35 10° WSW
Cosmos 2084 Rocket 3.5 14:21:25 10° WSW 14:25:34 71° NNW 14:29:03 15° NE
CZ-4C R/B 3.1 14:23:51 10° NNE 14:27:27 61° ESE 14:31:03 10° S
Cosmos 1763 Rocket 4.1 14:24:07 10° SW 14:29:06 55° NW 14:34:06 10° NNE
Cosmos 2341 Rocket 4.1 14:23:26 10° N 14:29:36 54° ENE 14:35:46 10° SSE
Landsat 5 3.6 14:25:39 10° NNE 14:29:57 62° ESE 14:34:23 10° S
Cosmos 1980 4.3 14:24:57 10° S 14:30:10 39° ESE 14:34:42 13° NE
CZ-4 R/B 2.6 14:27:12 10° ESE 14:30:11 21° ENE 14:33:13 10° N
Cosmos 1607 4.1 14:28:08 10° SW 14:34:32 80° NW 14:40:16 14° NE
Cosmos 1869 3.9 14:32:58 10° SSW 14:37:00 61° WNW 14:41:06 10° N
YAOGAN 6 3.1 14:35:02 10° S 14:38:40 63° W 14:42:16 10° NNW
Cosmos 1939 Rocket 3.2 14:36:54 10° SE 14:40:32 39° ENE 14:44:13 10° N
Cosmos 405 3.1 14:37:51 10° SSW 14:41:20 73° WNW 14:44:51 10° N
H-2A R/B 2.0 14:37:22 10° NNE 14:41:29 61° ESE 14:45:39 10° S
Cosmos 389 Rocket 3.3 14:39:39 10° SSE 14:42:36 27° E 14:43:31 24° ENE
Cosmos 2285 Rocket 4.1 14:37:23 10° NNW 14:43:46 59° NE 14:50:04 10° SE
Cosmos 1943 Rocket 2.4 14:39:26 10° NNW 14:44:50 49° NE 14:50:13 10° ESE
Cosmos 2297 3.6 14:41:13 10° NNW 14:46:54 71° NE 14:52:36 10° SE
SL-8 Rocket 4.0 14:44:26 10° N 14:50:35 58° ENE 14:56:45 10° SSE
Cosmos 405 Rocket 4.0 14:47:21 10° NNW 14:51:03 44° W 14:54:48 10° SSW
Cosmos 1633 Rocket 3.2 14:47:26 10° N 14:51:44 48° ENE 14:55:58 10° SSE
CZ-2C R/B 3.4 14:47:25 10° SE 14:51:59 36° ENE 14:56:24 10° N
Meteor 2-12 Rocket 4.4 14:46:31 10° N 14:52:43 80° ENE 14:58:52 10° SSE
CRYOSAT 2 4.3 14:48:15 10° N 14:53:11 75° E 14:58:05 10° S
ISS -2.0 14:51:21 10° SSW 14:53:56 21° SSE 14:55:02 18° SE
CSL-04 DEB 4.4 14:50:30 12° NNE 14:54:16 58° ESE 14:58:21 10° S
Cosmos 1125 Rocket 4.3 14:49:30 10° NW 14:54:36 56° WSW 14:59:41 10° S
Meteor 2-2 Rocket 4.4 14:49:00 10° SSW 14:54:58 81° WNW 15:00:51 10° NNE
Cosmos 2292 4.5 14:53:12 10° S 14:56:27 78° E 15:00:35 10° NNE
USA 267 3.4 14:51:05 10° ESE 14:57:36 74° SSW 15:04:11 10° WNW
Cosmos 2322 Rocket 3.7 14:52:39 10° W 14:57:37 30° NNW 15:02:27 11° NNE
ARGOS 4.0 14:56:43 21° E 14:58:47 27° NE 15:03:16 10° N
SL-16 R/B 3.2 14:55:56 10° SSE 15:00:31 26° ESE 15:01:48 24° E
CZ-4B R/B 1.7 15:01:17 36° ESE 15:01:17 36° ESE 15:04:05 10° SSE
Cosmos 1356 3.3 14:58:01 10° NNW 15:01:28 86° WSW 15:04:53 10° SSE
SMAP 3.9 15:00:22 10° S 15:04:55 54° W 15:09:32 10° NNW
Cosmos 2181 Rocket 4.3 14:59:18 10° SSE 15:05:22 46° E 15:11:24 10° NNE
Cosmos 2208 Rocket 4.4 15:00:21 10° SW 15:05:37 67° WNW 15:10:43 12° NNE
Cosmos 2221 3.4 15:02:05 10° SSW 15:06:19 49° WNW 15:10:32 10° N
Cosmos 540 Rocket 4.2 15:01:55 10° SW 15:06:54 50° NW 15:11:47 11° NNE
Cosmos 44 Rocket 4.0 15:10:20 10° NW 15:15:08 40° NNE 15:16:46 31° ENE
Cosmos 1933 3.6 15:11:27 10° SSE 15:15:17 43° E 15:16:05 38° ENE
Cosmos 1697 Rocket 4.5 15:12:31 10° NW 15:16:14 17° N 15:18:26 14° NNE
Cosmos 1606 2.6 15:12:49 10° S 15:16:43 72° E 15:19:09 22° NNE
Cosmos 2333 Rocket 2.9 15:12:08 10° WSW 15:17:41 52° NW 15:22:14 15° NNE
SeaSat 1 4.3 15:17:33 15° NNE 15:18:17 15° NNE 15:21:04 10° NNW
IRS-1C Rocket 4.0 15:15:41 10° SSE 15:20:58 83° ENE 15:26:18 10° NNW
Meteor 1-20 Rocket 4.2 15:15:08 10° NNW 15:21:02 86° ENE 15:26:54 10° SSE
Cosmos 2278 Rocket 4.4 15:17:35 10° NW 15:22:19 28° WSW 15:27:03 10° SSW
COSMOS 2428 3.2 15:17:43 10° SW 15:23:23 58° NW 15:27:47 17° NNE
USA 281 3.2 15:20:43 10° SSE 15:27:18 88° ENE 15:33:55 10° NNW
YAOGAN 1 2.6 15:24:33 20° SE 15:27:24 55° ENE 15:31:39 10° N
CZ-4 R/B 4.3 15:23:54 10° SSE 15:28:02 82° ENE 15:32:13 10° NNW
Cosmos 1470 Rocket 3.4 15:23:45 10° N 15:28:05 61° ENE 15:32:22 10° SSE
USA 81 4.0 15:26:22 10° N 15:31:42 89° E 15:36:59 10° S
MOS 1 Rocket 4.2 15:34:44 35° ESE 15:34:44 35° ESE 15:39:03 10° SSE
COSMO-SKYMED 1 2.6 15:33:14 46° NE 15:34:10 57° ESE 15:38:26 10° S
ERS-2 1.9 15:34:02 62° NE 15:34:33 77° ESE 15:38:13 10° SSW
EO 1 Delta rocket 4.3 15:32:33 13° NNE 15:37:06 57° E 15:43:14 10° S
Cosmos 2360 Rocket 3.8 15:33:08 10° W 15:37:55 28° NNW 15:41:37 15° NNE
Cosmos 2218 Rocket 3.9 15:32:09 10° NNW 15:38:21 87° W 15:44:31 10° S
Helios 1A Rocket 2.7 15:35:11 13° SSE 15:38:41 79° ENE 15:42:44 10° NNW
Sich 1 4.5 15:35:49 10° NNW 15:39:56 39° W 15:44:01 10° SSW
Meteor 1-25 Rocket 4.4 15:36:35 10° NNW 15:42:10 72° W 15:47:48 10° S
CSL-04 Debris 4.2 15:38:41 18° SE 15:42:43 61° ENE 15:48:09 10° NNW
Meteor 1-5 Rocket 4.4 15:37:19 10° N 15:43:09 51° ENE 15:45:05 37° ESE
H-2A R/B 2.0 15:40:38 18° SE 15:44:32 63° ENE 15:49:38 10° N
Okean-O 2.5 15:40:17 10° SSE 15:44:44 88° ENE 15:49:12 10° NNW
Cosmos 2219 Rocket 3.2 15:39:40 10° WSW 15:45:01 41° NW 15:48:44 19° NNE
Cosmos 1602 3.6 15:43:33 10° NNW 15:47:31 89° W 15:48:55 39° S
Cosmos 44 4.3 15:42:51 10° NW 15:47:54 50° SW 15:53:05 10° SSE
Cosmos 2366 rocket 4.0 15:41:50 10° NNW 15:48:04 79° W 15:54:14 10° S
Lacrosse 5 rocket 3.6 15:47:02 10° S 15:47:16 11° S 15:47:16 11° S
Cosmos 1932 4.4 15:44:05 10° SW 15:50:36 77° SE 15:53:06 40° NE
Cosmos 783 Rocket 4.5 15:45:38 10° S 15:50:49 59° ESE 15:51:25 55° E
CZ-2D R/B 3.7 15:47:39 10° S 15:51:25 60° WSW 15:55:15 10° NNW
Cosmos 1656 Rocket 3.7 15:46:10 10° NNW 15:51:46 55° NE 15:52:28 51° ENE
Cosmos 1980 Rocket 4.0 15:49:08 10° NW 15:52:45 17° N 15:54:00 16° NNE
Okean O Rocket 4.1 15:51:20 10° SW 15:54:47 23° W 15:58:16 10° NW
Cosmos 2237 Rocket 2.3 15:49:57 10° SW 15:55:35 72° NW 15:58:21 31° NNE
SL-16 R/B 4.1 15:51:40 10° WNW 15:55:45 20° NNW 15:58:13 15° NNE
SKYMED 3 4.5 15:57:33 62° NNE 15:58:16 90° W 16:02:37 10° SSW
Cosmos 1933 Rocket 3.4 15:54:13 10° N 15:58:43 82° ENE 15:58:51 81° ESE
Cosmos 1151 Rocket 2.9 15:55:33 10° S 15:59:51 89° W 15:59:59 84° N
SJ-11-01 4.1 16:00:41 62° SE 16:01:26 80° ENE 16:06:12 10° NNW
Cosmos 2369 Rocket 2.1 15:58:11 10° NW 16:03:56 88° WSW 16:06:00 42° SSE
USA 215 3.4 16:03:27 46° ESE 16:04:50 54° SE 16:11:14 10° SW
CZ-4 R/B 1.7 16:02:51 27° S 16:04:51 62° WSW 16:08:52 10° NNW
CSL-04 Rocket 3.5 16:03:05 37° SSE 16:05:19 80° ENE 16:10:39 10° NNW
Cosmos 1328 Rocket 3.6 16:04:25 10° SSW 16:08:14 69° SSW 16:08:14 69° SSW
NOSS 0 Rocket 4.4 16:03:36 10° SW 16:09:45 58° NW 16:12:54 29° NNE
Ariane Rocket 4.5 16:13:20 24° N 16:13:20 24° N 16:15:31 10° N
Cosmos 1980 4.2 16:08:33 10° SW 16:14:09 55° NW 16:16:33 33° NNE
Cosmos 2239 Rocket 4.3 16:08:45 10° N 16:14:55 70° ENE 16:15:58 58° SE
H-2A R/B 4.2 16:13:55 10° N 16:17:10 23° WNW 16:20:27 10° WSW
Cosmos 389 Rocket 4.3 16:14:12 10° SW 16:17:15 29° WNW 16:17:23 29° WNW
SKYMED 2 4.1 16:21:53 54° NW 16:22:17 57° WNW 16:26:33 10° SSW
DEBRIS 4.5 16:13:37 10° W 16:25:06 44° SSW 16:26:05 39° S
Meteor 1-11 Rocket 4.2 16:21:37 10° N 16:25:48 47° NNE 16:25:48 47° NNE
Cosmos 1867 3.5 16:21:52 10° SW 16:26:56 77° SSW 16:26:56 77° SSW
Cosmos 1943 Rocket 3.1 16:23:21 10° NW 16:28:36 44° WSW 16:32:39 16° S
ISS -1.0 16:27:04 10° WSW 16:27:59 17° SW 16:27:59 17° SW
CZ-2C R/B 4.0 16:27:00 10° S 16:31:51 44° W 16:36:31 10° NNW
CZ-4B R/B 4.2 16:34:26 16° W 16:34:26 16° W 16:35:37 10° WSW
ARGOS 3.3 16:38:14 69° SW 16:38:39 73° WSW 16:44:05 10° NNW
NOSS 3-3 (A) 4.3 16:32:24 10° NW 16:39:36 89° SW 16:40:59 65° SE
NOSS 3-3 (C) 4.3 16:32:31 10° NW 16:39:42 90° SSW 16:41:03 65° SE
USA 267 4.5 16:37:37 20° S 16:41:19 35° SW 16:47:15 10° WNW
Cosmos 2322 Rocket 4.1 16:39:47 10° NW 16:43:33 18° N 16:44:16 17° N
SL-16 R/B 2.3 16:38:28 10° SW 16:43:43 73° W 16:43:43 73° W
Cosmos 1934 Rocket 4.1 16:38:59 10° N 16:44:20 63° N 16:44:20 63° N
Cosmos 1821 Rocket 4.3 16:43:59 10° NNW 16:50:06 65° W 16:53:36 27° SSW
Cosmos 44 Rocket 4.4 16:51:58 10° NW 16:55:29 44° NW 16:55:29 44° NW
Cosmos 2333 Rocket 4.0 16:58:52 10° WNW 17:03:15 22° NNW 17:04:14 21° N
COSMOS 2428 4.5 17:04:19 10° WNW 17:08:52 23° NNW 17:09:49 23° N
Cosmos 2360 Rocket 4.3 17:20:10 10° NW 17:23:23 17° N 17:23:23 17° N
H-2A R/B 3.9 17:21:16 16° SW 17:24:20 27° W 17:28:45 10° NNW
Cosmos 2219 Rocket 4.2 17:26:27 10° WNW 17:30:28 20° NNW 17:30:28 20° NNW
Cosmos 1980 Rocket 4.4 17:34:09 10° NNW 17:35:46 17° NNW 17:35:46 17° NNW
Cosmos 2237 Rocket 4.0 17:35:57 10° W 17:40:11 26° NW 17:40:11 26° NW
SL-16 R/B 4.5 17:38:06 10° NNW 17:40:04 16° NNW 17:40:04 16° NNW
Cosmos 2369 Rocket 4.3 17:43:05 10° NW 17:47:15 21° WSW 17:47:50 21° WSW
USA 215 4.2 17:50:48 41° WSW 17:50:48 41° WSW 17:54:48 10° WSW
